RFF110 UKOH-UKFF

Flight info

Callsign RFF110
Flight time N/A
Altitude 32000
Route UKOH GOBLI ODSAN UKFF
Aircraft B60T/L-SDFGRY/C

Departure

Time 2026-04-24 19:22
Airport Kherson International Airport (UKOH)

Arrival

Time N/A
Airport Simferopol International Airport (UKFF)
Time Latitude Longitude Altitude Speed Heading
2026-04-24 19:17 46.67241 32.50721 135 ft 0 kts 213°
2026-04-24 19:19 46.67240 32.50720 135 ft 0 kts 213°
2026-04-24 19:20 46.67233 32.50710 130 ft 1 kts 242°
2026-04-24 19:20 46.67237 32.50705 130 ft 1 kts 326°
2026-04-24 19:20 46.67244 32.50712 146 ft 3 kts 25°
2026-04-24 19:21 46.67286 32.50715 146 ft 10 kts 321°
2026-04-24 19:21 46.67343 32.50599 146 ft 18 kts 300°
2026-04-24 19:21 46.67406 32.50458 146 ft 14 kts 346°
2026-04-24 19:21 46.67437 32.50480 147 ft 28 kts 33°
2026-04-24 19:22 46.68228 32.51219 163 ft 243 kts 33°
2026-04-24 19:22 46.70097 32.52245 1489 ft 306 kts 333°
2026-04-24 19:22 46.70714 32.49613 2402 ft 337 kts 246°
2026-04-24 19:22 46.69615 32.46340 3236 ft 382 kts 246°
2026-04-24 19:23 46.68364 32.42649 4388 ft 427 kts 246°
2026-04-24 19:23 46.67000 32.38606 5644 ft 458 kts 246°
2026-04-24 19:23 46.65565 32.34330 6942 ft 482 kts 246°
2026-04-24 19:23 46.64067 32.29852 8238 ft 502 kts 247°
2026-04-24 19:24 46.62518 32.25207 9556 ft 519 kts 247°
2026-04-24 19:24 46.60925 32.20417 10789 ft 532 kts 248°
2026-04-24 19:24 46.59328 32.15599 12011 ft 541 kts 249°
2026-04-24 19:24 46.58085 32.10359 12501 ft 559 kts 261°
2026-04-24 19:25 46.57434 32.04695 12923 ft 575 kts 266°
2026-04-24 19:25 46.56999 31.98860 13369 ft 587 kts 269°
2026-04-24 19:25 46.56716 31.92891 13577 ft 596 kts 269°
2026-04-24 19:25 46.56454 31.86848 13545 ft 603 kts 270°
2026-04-24 19:26 46.56193 31.80748 13516 ft 607 kts 270°
2026-04-24 19:26 46.55923 31.74621 13561 ft 609 kts 269°
2026-04-24 19:26 46.55607 31.68491 13685 ft 608 kts 269°
2026-04-24 19:26 46.55253 31.62372 13780 ft 604 kts 268°
2026-04-24 19:27 46.54872 31.56378 13854 ft 588 kts 268°
2026-04-24 19:27 46.54408 31.50524 13925 ft 582 kts 263°
2026-04-24 19:27 46.53571 31.44779 14011 ft 577 kts 262°
2026-04-24 19:27 46.52772 31.39081 14096 ft 574 kts 262°
2026-04-24 19:28 46.51985 31.33413 14166 ft 572 kts 263°
2026-04-24 19:28 46.51198 31.27744 14228 ft 571 kts 262°
2026-04-24 19:28 46.50411 31.22098 14300 ft 571 kts 262°
2026-04-24 19:28 46.49630 31.16523 14377 ft 570 kts 262°
2026-04-24 19:29 46.48044 31.05259 14498 ft 570 kts 262°
2026-04-24 19:29 46.47245 30.99618 14578 ft 569 kts 262°
2026-04-24 19:29 46.46446 30.93999 14651 ft 569 kts 262°
2026-04-24 19:30 46.45641 30.88368 14723 ft 569 kts 262°
2026-04-24 19:30 46.44835 30.82744 14802 ft 569 kts 262°
2026-04-24 19:30 46.44029 30.77137 14860 ft 569 kts 262°
2026-04-24 19:30 46.43217 30.71514 14952 ft 569 kts 262°
2026-04-24 19:31 46.42408 30.65930 14989 ft 553 kts 260°
2026-04-24 19:31 46.39342 30.64634 10974 ft 531 kts 169°
2026-04-24 19:31 46.35637 30.65936 5860 ft 560 kts 167°
2026-04-24 19:31 46.31923 30.67137 4805 ft 500 kts 180°
2026-04-24 19:32 46.29540 30.69076 4850 ft 403 kts 76°
2026-04-24 19:32 46.31561 30.70543 3337 ft 360 kts
2026-04-24 19:32 46.34040 30.70957 1759 ft 361 kts 351°
2026-04-24 19:32 46.36399 30.70307 1429 ft 335 kts 345°
2026-04-24 19:33 46.38578 30.69495 1140 ft 313 kts 341°
2026-04-24 19:33 46.40646 30.68571 580 ft 307 kts 344°
2026-04-24 19:33 46.42651 30.67842 845 ft 286 kts 345°
2026-04-24 19:33 46.44524 30.67169 1016 ft 269 kts 345°
2026-04-24 19:34 46.46290 30.66531 1117 ft 255 kts 345°